Regional Weather Roundup
Issued by NWS

Home | Current Version | Previous Version | Graphics & Text | Print | Product List | Glossary On
Versions: 1 2 3 4 5 6 7 8 9 10 11 12 13 14 15 16 17 18 19 20 21 22 23 24 25 26 27 28 29 30 31 32 33 34 35 36 37 38 39 40 41 42 43 44 45 46 47 48 49 50
000
ASUS43 KBIS 252210
RWRND

NORTH DAKOTA REGIONAL WEATHER ROUNDUP
NATIONAL WEATHER SERVICE BISMARCK ND
500 PM CDT SAT APR 25 2015

NOTE: "FAIR" INDICATES FEW OR NO CLOUDS BELOW 12,000 FEET WITH NO
SIGNIFICANT WEATHER AND/OR OBSTRUCTIONS TO VISIBILITY.


NDZ001>003-009>011-017-252300-
NORTHWEST NORTH DAKOTA

CITY           SKY/WX    TMP DP  RH WIND       PRES   REMARKS
WILLISTON      CLOUDY    57  43  59 SE15G25   29.73F
MINOT          CLOUDY    57  39  51 SE16      29.80S
MINOT AFB      CLOUDY    58  43  58 SE15G23   29.79S
$$

NDZ018>021-031>035-040>046-252300-
SOUTHWEST NORTH DAKOTA

CITY           SKY/WX    TMP DP  RH WIND       PRES   REMARKS
BISMARCK       CLOUDY    50  42  74 SE12      29.83R
DICKINSON      CLOUDY    49  43  80 SE18      29.74F
GARRISON         N/A     54  42  64 SE18      29.80R
HETTINGER ARPT CLOUDY    46  44  93 SE14      29.77R FOG
$$

NDZ004>008-012>016-024-026-027-054-252300-
NORTHEAST NORTH DAKOTA

CITY           SKY/WX    TMP DP  RH WIND       PRES   REMARKS
GRAND FORKS    PTSUNNY   63  38  39 S12       29.87S
GRND FRKS AFB  CLOUDY    63  38  40 S14       29.88S
DEVILS LAKE    CLOUDY    55  39  54 SE10      29.87R
$$

NDZ022-023-025-028>030-036>039-047>053-252300-
SOUTHEAST NORTH DAKOTA

CITY           SKY/WX    TMP DP  RH WIND       PRES   REMARKS
FARGO          MOSUNNY   61  38  42 S9G20     29.88R
JAMESTOWN      CLOUDY    49  40  71 SE12      29.87R
$$




USA.gov is the U.S. government's official web portal to all federal, state and local government web resources and services.